AirNav   Duncan Aviation - Near you to keep you flying
 
 521 users online  

53T Cannon Field Airport
Somerset, Texas, USA

GOING TO SOMERSET?


FAA INFORMATION EFFECTIVE 03 NOVEMBER 2022

Location

FAA Identifier: 53T
Lat/Long: 29-12-57.8640N 098-32-58.0630W
29-12.964400N 098-32.967717W
29.2160733,-98.5494619
(estimated)
Elevation: 610 ft. / 186 m (estimated)
Variation: 07E (1985)
From city: 6 miles E of SOMERSET, TX
Time zone: UTC -6 (UTC -5 during Daylight Saving Time)
Zip code: 78264

Airport Operations

Airport use: Open to the public
Activation date: 09/1983
Control tower: no
ARTCC: HOUSTON CENTER
FSS: SAN ANGELO FLIGHT SERVICE STATION
NOTAMs facility: SJT (NOTAM-D service available)
Attendance: CONTINUOUS
FOR ARPT ATTENDANT CALL 210-842-0429.
Wind indicator: yes
Segmented circle: no

Airport Communications

CTAF/UNICOM: 123.0
WX ASOS at SSF (8 nm NE): PHONE 210-927-9391
WX AWOS-3 at PEZ (16 nm S): 118.575 (830-569-5749)
WX AWOS-3 at CVB (18 nm NW): 119.25 (830-931-0232)
WX ASOS at SAT (20 nm N): PHONE 210-805-5583

Nearby radio navigation aids

VOR radial/distance  VOR name  Freq  Var
SSFr236/(6.1)STINSON VOR108.4009E
RNDr212/22.8RANDOLPH VORTAC112.3005E
SATr182/26.1SAN ANTONIO VORTAC116.8008E

 
NDB name  Hdg/Dist  Freq  Var  ID
DEVINE070/20.935907EHHH .... .... ....

Airport Services

Airframe service: NONE
Powerplant service: NONE

Runway Information

Runway 16/34

Dimensions: 2880 x 100 ft. / 878 x 30 m
Surface: turf, in good condition
Runway edge markings: RWY OUTLINED WITH ROUND WHITE CONCRETE MARKERS.
RUNWAY 16  RUNWAY 34
Traffic pattern: leftright
Displaced threshold: 200 ft.300 ft.
Markings: NSTD
Obstructions: 4 ft. fence, 105 ft. right of centerline
RWY 16 0:1 AT DSPLCD THR DUE TO 4 FT FENCE APPROX 105 FT R OF CNTRLN.
49 ft. tree, 100 ft. left of centerline
RWY 34 0:1 AT DSPLCD THR DUE TO +4 FT FENCE 51 FT R OF CNTRLN.

Airport Ownership and Management from official FAA records

Ownership: Privately-owned
Owner: ALAMO LIAISON GROUP
2352 S LOOP 1604 W
SAN ANTONIO, TX 78264-3719
Phone 210-624-2226
Manager: RICHARD ROBERTS
2352 S LOOP 1604 W
SAN ANTONIO, TX 78264-3719
Phone 210-624-2226

Airport Operational Statistics

Aircraft based on the field: 13
Single engine airplanes: 13
    
Aircraft operations: avg 21/week *
91% local general aviation
9% transient general aviation
* for 12-month period ending 01 February 2017

Additional Remarks

WILDLIFE ON & INVOF ARPT.
+30 FT MKD PWRLINE 500 FT N OF RWY 16 END.
RWYS 16 & 34 DSPLCD THRS MKD WITH WHITE PAINTED BARRELS.
RWY 16/34 SOUTH HALF ROUGH EDGES.
RWY 16 +4 FT FENCE 105 FT R PARALLEL TO RWY; +6-10 FT TREES IN FENCE ROW 105 FT R OF CNTRLN.
RWY 34 +4 FT FENCE 51 FT RIGHT PARALLEL TO RWY.
FOR CD CTC SAN ANTONIO APCH AT 210-805-5516.

Instrument Procedures

There are no published instrument procedures at 53T.

Some nearby airports with instrument procedures:

KSSF - Stinson Municipal Airport (8 nm NE)
KSKF - Kelly Field Airport (10 nm N)
KPEZ - Pleasanton Municipal Airport (16 nm S)
KCVB - Castroville Municipal Airport (18 nm NW)
KSAT - San Antonio International Airport (20 nm N)
 
Loc | Ops | Rwys | IFR | FBO | Links
Com | Nav | Svcs | Stats | Notes
Area around 53T (Cannon Field Airport)
 
Road maps at: MapQuest Bing Google
 
Aerial photo
WARNING: Photo may not be current or correct
Aerial photo of 53T (Cannon Field Airport)
Photo taken 11-Jun-2010

Do you have a better or more recent aerial photo of Cannon Field Airport that you would like to share? If so, please send us your photo.

 
Sectional chart

 
Airport distance calculator
Flying to Cannon Field Airport? Find the distance to fly.

From to 53T

Sunrise and sunset
Times for 29-Nov-2022
 Local
(UTC-6)
 Zulu
(UTC)
Morning civil twilight06:4512:45
Sunrise07:1013:10
Sunset17:3523:35
Evening civil twilight18:0100:01

Current date and time
Zulu (UTC)  29-Nov-2022 11:02:29
Local (UTC-6)  29-Nov-2022 05:02:29
 
METAR
KSSF 
8nm NE 
291053Z AUTO 20004KT 5SM BR FEW009 SCT015 OVC040 20/20 A2977 RMK AO2 RAB12E45 SLP072 P0001 T02000200 $
KSKF 
9nm N 
291055Z AUTO 20004KT 4SM BR BKN007 OVC011 20/20 A2976 RMK AO2 SLP072 T01960196 $
KPEZ 
16nm S 
291055Z AUTO 00000KT 3SM BR BKN004 BKN009 OVC024 21/20 A2979 RMK AO2 T02050198
KCVB 
17nm NW 
291037Z AUTO 00000KT 2 1/2SM BR OVC005 21/21 A2980 RMK AO2
KSAT 
20nm N 
291051Z 19009KT 3SM -RA BR OVC005 19/19 A2978 RMK AO2 SLP070 P0000 T01940189
TAF
KSSF 
8nm NE 
291030Z 2911/3006 19005KT 5SM BR OVC012 TEMPO 2911/2915 3SM BR OVC004 FM291500 20007KT P6SM BKN015 FM292100 22006KT P6SM FEW250
KSKF 
9nm N 
291000Z 2910/3016 20009KT 9000 BR BKN008 OVC010 QNH2974INS TEMPO 2910/2914 4800 -DZ BKN010 BECMG 2914/2915 21010KT 9000 BR BKN010 QNH2979INS BECMG 2915/2916 22010KT 9999 NSW BKN020 QNH2980INS BECMG 2917/2918 25008KT 9999 FEW030 QNH2973INS BECMG 2922/2923 VRB05KT 9999 SKC QNH2974INS WND 34006KT AFT 3005 BECMG 3009/3010 02015G28KT 9999 SKC 510003 QNH3003INS TX28/2921Z TN11/3010Z
KSAT 
20nm N 
290930Z 2910/3012 17006KT 1/2SM -DZ FG OVC002 FM291500 20007KT P6SM BKN011 FM292000 22008KT P6SM SCT025
NOTAMs
Click for the latest NOTAMs
NOTAMs are issued by the DoD/FAA and will open in a separate window not controlled by AirNav.

 

 
 

Would you like to see your business listed on this page?

 If your business provides an interesting product or service to pilots, flight crews, aircraft, or users of the Cannon Field Airport, you should consider listing it here.  To start the listing process, click on the button below
 
Add a business
 

Other Pages about Cannon Field Airport

Update a link
 
Copyright © AirNav, LLC. All rights reserved. Privacy Policy  Contact